Hovedside
METAR-TAF:

METAR-TAF

Lufthavner :

Kairouan, Tunisia

breddegrad: 35-40N, lengdegrad: 010-06E, høyde over havet: 60 m

Gjeldene værobservasjon

Denne rapporten ble laget for 3 timer og 4 minutter siden, klokken 01:00 UTC
Vind 5 kt fra Nord, skiftende mellom Nordvest og Øst-nordøst
Temperatur 12°C
Luftfuktighet 62%
Trykk 1017 hPa
Sikt 10 km eller mer
Få skyer i en høyde av 2300 ft

METAR: DTTK 200100Z 36005KT 310V070 9999 FEW023 12/05 Q1017

Tid: 05:04 (04:04 UTC)


TAF: fraværende

Værobservasjoner og værvarsel for over 4000 flyplasser (METAR- og TAF-rapporter).

Tilgjengelige stasjoner er representert av de røde og gule prikkene på kartet.

Hold musepekeren over prikken for å se navnet på stasjonen.

Klikk så for å se værobservasjoner og -varsler.

For å forandre kartet kan du klikke på den grønne knappen med svart kryss for å zoome inn, på den grønne knappen med strek for å zoome ut, eller på de grønne pilene for å se tilstøtende kart.


METAR-TAF: